Regional Weather Roundup
Issued by NWS

Home | Current Version | Previous Version | Graphics & Text | Print | Product List | Glossary Off
Versions: 1 2 3 4 5 6 7 8 9 10 11 12 13 14 15 16 17 18 19 20 21 22 23 24 25 26 27 28 29 30 31 32 33 34 35 36 37 38 39 40 41 42 43 44 45 46 47 48 49 50

000
ASUS43 KDTX 130010
RWRMI
MICHIGAN HOURLY REGIONAL WEATHER ROUNDUP
NATIONAL WEATHER SERVICE DETROIT/PONTIAC MI
700 PM EST FRI FEB 12 2016

NOTE: "FAIR" INDICATES FEW OR NO CLOUDS BELOW 12,000 FEET WITH NO
SIGNIFICANT WEATHER AND/OR OBSTRUCTION TO VISIBILITY.

MIZ047>049-052>055-059>063-066>070-074>076-081>083-130100-
SOUTHEAST LOWER MICHIGAN

CITY           SKY/WX    TMP DP  RH WIND       PRES   REMARKS
ADRIAN         LGT SNOW  16  10  77 NW12      30.08R WCI   3
6HR MIN TEMP:  15; 6HR MAX TEMP:  24; 6HR PCP: TRACE;

ALMA           LGT SNOW  14   6  72 N16G26    30.11R WCI  -2
ANN ARBOR      LGT SNOW  16   9  74 NW16G23   30.04R WCI   1
BAD AXE        LGT SNOW  13   6  73 N20       30.03R WCI  -4
CARO           CLOUDY    12   5  73 NW16G23   30.04R WCI  -4
DETROIT CITY   PTCLDY    18   6  59 NW12      30.03R WCI   5
6HR MIN TEMP:  18; 6HR MAX TEMP:  25; 6HR PCP: TRACE;

DETROIT        LGT SNOW  18  10  73 NW18G28   30.06R WCI   2
6HR MIN TEMP:  17; 6HR MAX TEMP:  26; 6HR PCP:  0.02;

FLINT          LGT SNOW  15   7  70 NW15      30.06R WCI   0
6HR MIN TEMP:  15; 6HR MAX TEMP:  22; 6HR PCP:  0.01;

GROSSE ILE     CLOUDY    19  10  68 NW14      30.03R WCI   6
HILLSDALE      CLEAR     14   6  72 NW17G25   30.05R WCI  -3
6HR MIN TEMP:  14; 6HR MAX TEMP:  21;

HOWELL         PTCLDY    15   7  71 NW10      30.04R WCI   2
6HR MIN TEMP:  15; 6HR MAX TEMP:  22;


CITY           SKY/WX    TMP DP  RH WIND       PRES   REMARKS
JACKSON        PTCLDY    14   5  67 NW20G26   30.06R WCI  -3
6HR MIN TEMP:  14; 6HR MAX TEMP:  22; 6HR PCP: TRACE;

LAMBERTVILLE   PTCLDY    17   7  63 NW8       30.08R WCI   7
6HR MIN TEMP:  17; 6HR MAX TEMP:  25;

LANSING        LGT SNOW  14   8  77 NW15      30.09R WCI  -1
6HR MIN TEMP:  14; 6HR MAX TEMP:  22; 6HR PCP: TRACE;

LAPEER         LGT SNOW  15  10  78 N12G20    30.02R WCI   2
6HR MIN TEMP:  15; 6HR MAX TEMP:  22;

MASON          LGT SNOW  15   9  76 NW13      30.06R WCI   1
MONROE         CLEAR     18   8  63 NW15G22   30.05R WCI   4
6HR MIN TEMP:  18; 6HR MAX TEMP:  25;

MT. CLEMENS    PTCLDY    17   8  67 W12       30.00R WCI   4
6HR MIN TEMP:  17; 6HR MAX TEMP:  25; 6HR PCP: TRACE;

PONTIAC        PTCLDY    15   6  67 NW17      30.00R WCI  -1
6HR MIN TEMP:  15; 6HR MAX TEMP:  22; 6HR PCP: TRACE;

PORT HOPE        N/A     15   5  64 NW23G37   30.01R WCI  -3
6HR MIN TEMP:  15; 6HR MAX TEMP:  22;

PORT HURON     PTCLDY    16   9  73 NW9G17    30.00R WCI   4
TRI CITIES     CLEAR     13  -2  51 NW22      30.10R WCI  -6
6HR MIN TEMP:  13; 6HR MAX TEMP:  22; 6HR PCP: TRACE;

MIDLAND        FAIR      11  -2  56 NW18G25   30.11R WCI  -7
6HR MIN TEMP:  11; 6HR MAX TEMP:  22;

TROY           PTCLDY    18   8  64 W8G20     30.04R WCI   8
SAGINAW HB     PTCLDY    14   3  62 NW20G26   30.09R WCI  -3
$$
MIZ043>046-050>051-056>058-064>065-071>073-077>080-130100-
SOUTHWEST LOWER MICHIGAN

CITY           SKY/WX    TMP DP  RH WIND       PRES   REMARKS
BATTLE CREEK   PTCLDY    14   6  70 NW17      30.11R WCI  -3
6HR MIN TEMP:  14; 6HR MAX TEMP:  21; 6HR PCP: TRACE;

BENTON HARBOR  LGT SNOW  18   7  62 NW18G28   30.21R WCI   2
6HR MIN TEMP:  17; 6HR MAX TEMP:  22; 6HR PCP: TRACE;

BIG RAPIDS     CLEAR     10  -2  59 N14G24    30.13R WCI  -7
6HR MIN TEMP:  10; 6HR MAX TEMP:  19;

COLDWATER      LGT SNOW  15  12  86 NW15G28   30.10R VSB 3/4 WCI   0
6HR MIN TEMP:  15; 6HR MAX TEMP:  22;

FREMONT        LGT SNOW  11   7  83 N14       30.17R VSB 1   WCI  -5
6HR MIN TEMP:  11; 6HR MAX TEMP:  19;

HOLLAND        LGT SNOW  17   7  64 N13G28    30.18R WCI   4
6HR MIN TEMP:  16; 6HR MAX TEMP:  20; 6HR PCP: TRACE;

GRAND RAPIDS   FLURRIES  15   7  70 NW15G25   30.13R WCI   0
6HR MIN TEMP:  15; 6HR MAX TEMP:  22; 6HR PCP: TRACE;

IONIA          LGT SNOW  14  10  83 NW12G18   30.10R WCI   1
6HR MIN TEMP:  14; 6HR MAX TEMP:  23;

KALAMAZOO      LGT SNOW  15   9  76 NW14G23   30.13R WCI   0
6HR MIN TEMP:  15; 6HR MAX TEMP:  20; 6HR PCP: TRACE;

LUDINGTON      LGT SNOW  12   1  62 NW21G33   30.22R WCI  -7
6HR MIN TEMP:  12; 6HR MAX TEMP:  18;

MARSHALL       CLEAR     14   7  72 NW13      30.09R WCI   0
6HR MIN TEMP:  14; 6HR MAX TEMP:  23;

MOUNT PLEASANT PTCLDY    12  -2  53 N13G24    30.12R WCI  -3
6HR MIN TEMP:  12; 6HR MAX TEMP:  25;

MUSKEGON       LGT SNOW  15   6  67 N15G28    30.20R VSB 1   WCI   0
6HR MIN TEMP:  15; 6HR MAX TEMP:  20; 6HR PCP:  0.01;

SOUTH HAVEN    LGT SNOW  17  10  72 N22G35    30.19R WCI   0
$$
MIZ016>042-130100-
NORTHERN LOWER MICHIGAN

CITY           SKY/WX    TMP DP  RH WIND       PRES   REMARKS
ALPENA         CLOUDY     5  -9  52 NW17G25   30.10R WCI -14
6HR MIN TEMP:   5; 6HR MAX TEMP:  18; 6HR PCP: TRACE;

BEAVER ISLAND  CLOUDY     6  -4  62 NW13G26   30.19R WCI -10
6HR MIN TEMP:   6; 6HR MAX TEMP:  13;

BELLAIRE       LGT SNOW   7   2  80 NW8       30.19R WCI  -5
6HR MIN TEMP:   7; 6HR MAX TEMP:  19;

CADILLAC       LGT SNOW   6   0  75 N9G18     30.10R WCI  -8
CHARLEVOIX     CLOUDY     8  -3  62 NW24G36   30.20R HAZE    WCI -13
FRANKFORT      LGT SNOW   8   0  69 NW20G29   30.23R WCI -11
GAYLORD        SNOW       3  -1  83 N8        30.07R VSB 1/4 WCI -10
6HR MIN TEMP:   3; 6HR MAX TEMP:  16; 6HR PCP:  0.04;

GRAYLING       PTCLDY     4  -3  71 NW15      30.10R WCI -14
HARBOR SPRINGS LGT SNOW   6  -5  62 NW13G24   30.16R WCI -11
HOUGHTON LAKE  MIX PCPN   6  -4  63 NW10G26   30.09R WCI  -9
6HR MIN TEMP:   6; 6HR MAX TEMP:  18; 6HR PCP:  0.03;

MANISTEE       CLOUDY    10   1  67 N16G29    30.21R VSB 1/2 WCI  -7
OSCODA         PTCLDY     7  -6  55 NW24      30.08R WCI -14
6HR MIN TEMP:   7; 6HR MAX TEMP:  20;

PELLSTON       MOCLDY     3  -7  63 NW20G28   30.16R WCI -18
6HR MIN TEMP:   3; 6HR MAX TEMP:  14; 6HR PCP: TRACE;

ROGERS CITY    CLOUDY     5  -7  57 NW21G35   30.11R HAZE    WCI -15
TRAVERSE CITY  SNOW       8   3  80 N23G31    30.19R VSB 1/2 WCI -13
6HR MIN TEMP:   8; 6HR MAX TEMP:  18; 6HR PCP: TRACE;

$$
MIZ007>008-015-130100-
EASTERN UPPER MICHIGAN

CITY           SKY/WX    TMP DP  RH WIND       PRES   REMARKS
KINROSS        CLOUDY     1   0  92 NW15G22   30.11R VSB 3/4 WCI -18
6HR MIN TEMP:   1; 6HR MAX TEMP:   9;

MACKINAC ISLAN CLOUDY     1  -6  70 N14G23    30.15R WCI -17
6HR MIN TEMP:   1; 6HR MAX TEMP:  13;

NEWBERRY       LGT SNOW   2  -2  83 NW9G17    30.14R WCI -12
6HR MIN TEMP:   2; 6HR MAX TEMP:   7;

S. S. MARIE    CLOUDY    -3 -13  62 N15G22    30.13R WCI -23
6HR MIN TEMP:  -3; 6HR MAX TEMP:   8; 6HR PCP: TRACE;

MUNISING         N/A      5  -2  72 N20G30    30.23R WCI -15
6HR MIN TEMP:   4; 6HR MAX TEMP:   6; 6HR PCP:  0.05;

$$
MIZ004>006-011>014-085-130100-
CENTRAL UPPER MICHIGAN

CITY           SKY/WX    TMP DP  RH WIND       PRES   REMARKS
MANISTIQUE     LGT SNOW   3  -2  80 NW12G20   30.20R WCI -13
6HR MIN TEMP:   3; 6HR MAX TEMP:  10;

ESCANABA       CLEAR      1 -17  42 NW13G22   30.29R WCI -16
6HR MIN TEMP:   1; 6HR MAX TEMP:  12;

MENOMINEE      CLEAR      3 -15  43 NW13G21   30.32R WCI -14
6HR MIN TEMP:   3; 6HR MAX TEMP:  16;

SAWYER-GWINN   MOCLDY    -4 -13  65 NW12      30.22R WCI -22
$$
MIZ001>003-009>011-084-130100-
WESTERN UPPER MICHIGAN

CITY           SKY/WX    TMP DP  RH WIND       PRES   REMARKS
IRON MOUNTAIN  PTCLDY    -1 -13  56 NW15      30.26R WCI -21
6HR MIN TEMP:  -1; 6HR MAX TEMP:   9; 6HR PCP: TRACE;

HOUGHTON       LGT SNOW   2  -4  76 NW15G23   30.27R VSB 1   WCI -17
6HR MIN TEMP:  -3; 6HR MAX TEMP:   2; 6HR PCP: TRACE;

COPPER HARBOR    N/A      6   0  76 N28G37    30.28R WCI -17
6HR MIN TEMP:   0; 6HR MAX TEMP:   6;

IRONWOOD       CLOUDY     1  -2  85 W10G17    30.33R WCI -14
6HR MIN TEMP:   0; 6HR MAX TEMP:   1;

$$

ABBREVIATIONS USED IN REMARKS
   TC - TEMPERATURE IN CELSIUS
  WCI - WIND CHILL INDEX
   HX - HEAT INDEX
  VSB - VISIBILITY




USA.gov is the U.S. government's official web portal to all federal, state and local government web resources and services.